owner,sensor,date,latitude,longitude,vertical_datum,sea_water_practical_salinity,qcFlag 
COMPS,ioos:station:USF.COMPS:FHP:1,2016-01-01T04:00:00Z,28.1530,-82.8010,,14.406,1111122 
COMPS,ioos:station:USF.COMPS:FHP:1,2016-01-01T04:06:00Z,28.1530,-82.8010,,14.391,1111122 
COMPS,ioos:station:USF.COMPS:FHP:1,2016-01-01T04:12:00Z,28.1530,-82.8010,,14.381,1111122 
COMPS,ioos:station:USF.COMPS:FHP:1,2016-01-01T04:18:00Z,28.1530,-82.8010,,14.355,1111122 
COMPS,ioos:station:USF.COMPS:FHP:1,2016-01-01T04:24:00Z,28.1530,-82.8010,,14.397,1111122 
COMPS,ioos:station:USF.COMPS:FHP:1,2016-01-01T04:30:00Z,28.1530,-82.8010,,14.425,1111122 
COMPS,ioos:station:USF.COMPS:FHP:1,2016-01-01T04:36:00Z,28.1530,-82.8010,,14.441,1111122 
COMPS,ioos:station:USF.COMPS:FHP:1,2016-01-01T04:42:00Z,28.1530,-82.8010,,14.465,1111122 
COMPS,ioos:station:USF.COMPS:FHP:1,2016-01-01T04:48:00Z,28.1530,-82.8010,,14.472,1111122 
COMPS,ioos:station:USF.COMPS:FHP:1,2016-01-01T04:54:00Z,28.1530,-82.8010,,14.47,1111122 
COMPS,ioos:station:USF.COMPS:FHP:1,2016-01-01T05:00:00Z,28.1530,-82.8010,,14.479,1111122 
COMPS,ioos:station:USF.COMPS:FHP:1,2016-01-01T05:06:00Z,28.1530,-82.8010,,14.533,1111122 
COMPS,ioos:station:USF.COMPS:FHP:1,2016-01-01T05:12:00Z,28.1530,-82.8010,,14.498,1111122 
COMPS,ioos:station:USF.COMPS:FHP:1,2016-01-01T05:18:00Z,28.1530,-82.8010,,14.517,1111122 
COMPS,ioos:station:USF.COMPS:FHP:1,2016-01-01T05:24:00Z,28.1530,-82.8010,,14.514,1111122 
COMPS,ioos:station:USF.COMPS:FHP:1,2016-01-01T05:30:00Z,28.1530,-82.8010,,14.514,1111122 
COMPS,ioos:station:USF.COMPS:FHP:1,2016-01-01T05:36:00Z,28.1530,-82.8010,,14.519,1111122 
COMPS,ioos:station:USF.COMPS:FHP:1,2016-01-01T05:42:00Z,28.1530,-82.8010,,14.492,1111122 
COMPS,ioos:station:USF.COMPS:FHP:1,2016-01-01T05:48:00Z,28.1530,-82.8010,,14.485,1111122 
COMPS,ioos:station:USF.COMPS:FHP:1,2016-01-01T05:54:00Z,28.1530,-82.8010,,14.764,1111122 
COMPS,ioos:station:USF.COMPS:FHP:1,2016-01-01T06:00:00Z,28.1530,-82.8010,,15.228,1111122 
COMPS,ioos:station:USF.COMPS:FHP:1,2016-01-01T06:06:00Z,28.1530,-82.8010,,15.158,1111122 
COMPS,ioos:station:USF.COMPS:FHP:1,2016-01-01T06:12:00Z,28.1530,-82.8010,,15.043,1111122 
COMPS,ioos:station:USF.COMPS:FHP:1,2016-01-01T06:18:00Z,28.1530,-82.8010,,15.095,1111122 
COMPS,ioos:station:USF.COMPS:FHP:1,2016-01-01T06:24:00Z,28.1530,-82.8010,,15.093,1111122 
COMPS,ioos:station:USF.COMPS:FHP:1,2016-01-01T06:30:00Z,28.1530,-82.8010,,15.066,1111122 
COMPS,ioos:station:USF.COMPS:FHP:1,2016-01-01T06:36:00Z,28.1530,-82.8010,,15.074,1111122 
COMPS,ioos:station:USF.COMPS:FHP:1,2016-01-01T06:42:00Z,28.1530,-82.8010,,15.059,1111122 
COMPS,ioos:station:USF.COMPS:FHP:1,2016-01-01T06:48:00Z,28.1530,-82.8010,,15.042,1111122 
COMPS,ioos:station:USF.COMPS:FHP:1,2016-01-01T06:54:00Z,28.1530,-82.8010,,15.04,1111122 
COMPS,ioos:station:USF.COMPS:FHP:1,2016-01-01T07:00:00Z,28.1530,-82.8010,,15.065,1111122 
COMPS,ioos:station:USF.COMPS:FHP:1,2016-01-01T07:06:00Z,28.1530,-82.8010,,15.094,1111122 
COMPS,ioos:station:USF.COMPS:FHP:1,2016-01-01T07:12:00Z,28.1530,-82.8010,,15.098,1111122 
COMPS,ioos:station:USF.COMPS:FHP:1,2016-01-01T07:18:00Z,28.1530,-82.8010,,15.065,1111122 
COMPS,ioos:station:USF.COMPS:FHP:1,2016-01-01T07:24:00Z,28.1530,-82.8010,,15.057,1111122 
COMPS,ioos:station:USF.COMPS:FHP:1,2016-01-01T07:30:00Z,28.1530,-82.8010,,15.089,1111122 
COMPS,ioos:station:USF.COMPS:FHP:1,2016-01-01T07:36:00Z,28.1530,-82.8010,,15.161,1111122 
COMPS,ioos:station:USF.COMPS:FHP:1,2016-01-01T07:42:00Z,28.1530,-82.8010,,15.098,1111122 
COMPS,ioos:station:USF.COMPS:FHP:1,2016-01-01T07:48:00Z,28.1530,-82.8010,,15.095,1111122 
COMPS,ioos:station:USF.COMPS:FHP:1,2016-01-01T07:54:00Z,28.1530,-82.8010,,15.073,1111122 
COMPS,ioos:station:USF.COMPS:FHP:1,2016-01-01T08:00:00Z,28.1530,-82.8010,,15.058,1111122 
COMPS,ioos:station:USF.COMPS:FHP:1,2016-01-01T08:06:00Z,28.1530,-82.8010,,15.075,1111122 
COMPS,ioos:station:USF.COMPS:FHP:1,2016-01-01T08:12:00Z,28.1530,-82.8010,,15.105,1111122 
COMPS,ioos:station:USF.COMPS:FHP:1,2016-01-01T08:18:00Z,28.1530,-82.8010,,15.118,1111122 
COMPS,ioos:station:USF.COMPS:FHP:1,2016-01-01T08:24:00Z,28.1530,-82.8010,,15.243,1111122 
COMPS,ioos:station:USF.COMPS:FHP:1,2016-01-01T08:30:00Z,28.1530,-82.8010,,15.181,1111122 
COMPS,ioos:station:USF.COMPS:FHP:1,2016-01-01T08:36:00Z,28.1530,-82.8010,,15.353,1111122 
COMPS,ioos:station:USF.COMPS:FHP:1,2016-01-01T08:42:00Z,28.1530,-82.8010,,15.372,1111122 
COMPS,ioos:station:USF.COMPS:FHP:1,2016-01-01T08:48:00Z,28.1530,-82.8010,,15.452,1111122 
COMPS,ioos:station:USF.COMPS:FHP:1,2016-01-01T08:54:00Z,28.1530,-82.8010,,15.518,1111122 
COMPS,ioos:station:USF.COMPS:FHP:1,2016-01-01T09:00:00Z,28.1530,-82.8010,,15.336,1111122 
COMPS,ioos:station:USF.COMPS:FHP:1,2016-01-01T09:06:00Z,28.1530,-82.8010,,14.789,1111122 
COMPS,ioos:station:USF.COMPS:FHP:1,2016-01-01T09:12:00Z,28.1530,-82.8010,,14.786,1111122 
COMPS,ioos:station:USF.COMPS:FHP:1,2016-01-01T09:18:00Z,28.1530,-82.8010,,14.763,1111122 
COMPS,ioos:station:USF.COMPS:FHP:1,2016-01-01T09:24:00Z,28.1530,-82.8010,,14.745,1111122 
COMPS,ioos:station:USF.COMPS:FHP:1,2016-01-01T09:30:00Z,28.1530,-82.8010,,14.741,1111122 
COMPS,ioos:station:USF.COMPS:FHP:1,2016-01-01T09:36:00Z,28.1530,-82.8010,,14.73,1111122 
COMPS,ioos:station:USF.COMPS:FHP:1,2016-01-01T09:42:00Z,28.1530,-82.8010,,14.734,1111122 
COMPS,ioos:station:USF.COMPS:FHP:1,2016-01-01T09:48:00Z,28.1530,-82.8010,,14.766,1111122 
COMPS,ioos:station:USF.COMPS:FHP:1,2016-01-01T09:54:00Z,28.1530,-82.8010,,14.735,1111122 
COMPS,ioos:station:USF.COMPS:FHP:1,2016-01-01T10:00:00Z,28.1530,-82.8010,,14.706,1111122 
COMPS,ioos:station:USF.COMPS:FHP:1,2016-01-01T10:06:00Z,28.1530,-82.8010,,14.728,1111122 
COMPS,ioos:station:USF.COMPS:FHP:1,2016-01-01T10:12:00Z,28.1530,-82.8010,,14.75,1111122 
COMPS,ioos:station:USF.COMPS:FHP:1,2016-01-01T10:18:00Z,28.1530,-82.8010,,14.717,1111122 
COMPS,ioos:station:USF.COMPS:FHP:1,2016-01-01T10:24:00Z,28.1530,-82.8010,,14.713,1111122 
COMPS,ioos:station:USF.COMPS:FHP:1,2016-01-01T10:30:00Z,28.1530,-82.8010,,14.695,1111122 
COMPS,ioos:station:USF.COMPS:FHP:1,2016-01-01T10:36:00Z,28.1530,-82.8010,,14.698,1111122 
COMPS,ioos:station:USF.COMPS:FHP:1,2016-01-01T10:42:00Z,28.1530,-82.8010,,14.725,1111122 
COMPS,ioos:station:USF.COMPS:FHP:1,2016-01-01T10:48:00Z,28.1530,-82.8010,,14.744,1111122 
COMPS,ioos:station:USF.COMPS:FHP:1,2016-01-01T10:54:00Z,28.1530,-82.8010,,14.737,1111122 
COMPS,ioos:station:USF.COMPS:FHP:1,2016-01-01T11:00:00Z,28.1530,-82.8010,,14.755,1111122 
COMPS,ioos:station:USF.COMPS:FHP:1,2016-01-01T11:06:00Z,28.1530,-82.8010,,14.755,1111122 
COMPS,ioos:station:USF.COMPS:FHP:1,2016-01-01T11:12:00Z,28.1530,-82.8010,,14.773,1111122 
COMPS,ioos:station:USF.COMPS:FHP:1,2016-01-01T11:18:00Z,28.1530,-82.8010,,14.823,1111122 
COMPS,ioos:station:USF.COMPS:FHP:1,2016-01-01T11:24:00Z,28.1530,-82.8010,,14.889,1111122 
COMPS,ioos:station:USF.COMPS:FHP:1,2016-01-01T11:30:00Z,28.1530,-82.8010,,14.936,1111122 
COMPS,ioos:station:USF.COMPS:FHP:1,2016-01-01T11:36:00Z,28.1530,-82.8010,,14.859,1111122 
COMPS,ioos:station:USF.COMPS:FHP:1,2016-01-01T11:42:00Z,28.1530,-82.8010,,14.873,1111122 
COMPS,ioos:station:USF.COMPS:FHP:1,2016-01-01T11:48:00Z,28.1530,-82.8010,,14.781,1111122 
COMPS,ioos:station:USF.COMPS:FHP:1,2016-01-01T11:54:00Z,28.1530,-82.8010,,14.71,1111122 
COMPS,ioos:station:USF.COMPS:FHP:1,2016-01-01T12:00:00Z,28.1530,-82.8010,,14.689,1111122 
COMPS,ioos:station:USF.COMPS:FHP:1,2016-01-01T12:06:00Z,28.1530,-82.8010,,14.697,1111122 
COMPS,ioos:station:USF.COMPS:FHP:1,2016-01-01T12:12:00Z,28.1530,-82.8010,,14.707,1111122 
COMPS,ioos:station:USF.COMPS:FHP:1,2016-01-01T12:18:00Z,28.1530,-82.8010,,14.661,1111122 
COMPS,ioos:station:USF.COMPS:FHP:1,2016-01-01T12:24:00Z,28.1530,-82.8010,,14.716,1111122 
COMPS,ioos:station:USF.COMPS:FHP:1,2016-01-01T12:30:00Z,28.1530,-82.8010,,14.649,1111122 
COMPS,ioos:station:USF.COMPS:FHP:1,2016-01-01T12:36:00Z,28.1530,-82.8010,,14.735,1111122 
COMPS,ioos:station:USF.COMPS:FHP:1,2016-01-01T12:42:00Z,28.1530,-82.8010,,14.728,1111122 
COMPS,ioos:station:USF.COMPS:FHP:1,2016-01-01T12:48:00Z,28.1530,-82.8010,,14.631,1111122 
COMPS,ioos:station:USF.COMPS:FHP:1,2016-01-01T12:54:00Z,28.1530,-82.8010,,14.644,1111122 
COMPS,ioos:station:USF.COMPS:FHP:1,2016-01-01T13:00:00Z,28.1530,-82.8010,,14.6,1111122 
COMPS,ioos:station:USF.COMPS:FHP:1,2016-01-01T13:06:00Z,28.1530,-82.8010,,14.668,1111122 
COMPS,ioos:station:USF.COMPS:FHP:1,2016-01-01T13:12:00Z,28.1530,-82.8010,,15.366,1111122 
COMPS,ioos:station:USF.COMPS:FHP:1,2016-01-01T13:18:00Z,28.1530,-82.8010,,15.288,1111122 
COMPS,ioos:station:USF.COMPS:FHP:1,2016-01-01T13:24:00Z,28.1530,-82.8010,,15.282,1111122 
COMPS,ioos:station:USF.COMPS:FHP:1,2016-01-01T13:30:00Z,28.1530,-82.8010,,15.239,1111122 
COMPS,ioos:station:USF.COMPS:FHP:1,2016-01-01T13:36:00Z,28.1530,-82.8010,,15.191,1111122 
COMPS,ioos:station:USF.COMPS:FHP:1,2016-01-01T13:42:00Z,28.1530,-82.8010,,15.075,1111122 
COMPS,ioos:station:USF.COMPS:FHP:1,2016-01-01T13:48:00Z,28.1530,-82.8010,,14.992,1111122 
COMPS,ioos:station:USF.COMPS:FHP:1,2016-01-01T13:54:00Z,28.1530,-82.8010,,14.43,1111122 
COMPS,ioos:station:USF.COMPS:FHP:1,2016-01-01T14:00:00Z,28.1530,-82.8010,,14.148,1111122 
COMPS,ioos:station:USF.COMPS:FHP:1,2016-01-01T14:06:00Z,28.1530,-82.8010,,14.204,1111122 
COMPS,ioos:station:USF.COMPS:FHP:1,2016-01-01T14:12:00Z,28.1530,-82.8010,,13.614,1111122 
COMPS,ioos:station:USF.COMPS:FHP:1,2016-01-01T14:18:00Z,28.1530,-82.8010,,12.777,1111122 
COMPS,ioos:station:USF.COMPS:FHP:1,2016-01-01T14:24:00Z,28.1530,-82.8010,,11.364,1111122 
COMPS,ioos:station:USF.COMPS:FHP:1,2016-01-01T14:30:00Z,28.1530,-82.8010,,8.952,1111122 
COMPS,ioos:station:USF.COMPS:FHP:1,2016-01-01T14:36:00Z,28.1530,-82.8010,,6.983,1111122 
COMPS,ioos:station:USF.COMPS:FHP:1,2016-01-01T14:42:00Z,28.1530,-82.8010,,9.905,1111122 
COMPS,ioos:station:USF.COMPS:FHP:1,2016-01-01T14:48:00Z,28.1530,-82.8010,,7.609,1111122 
COMPS,ioos:station:USF.COMPS:FHP:1,2016-01-01T15:00:00Z,28.1530,-82.8010,,3.401,1111122 
COMPS,ioos:station:USF.COMPS:FHP:1,2016-01-01T15:30:00Z,28.1530,-82.8010,,2.903,1111122 
COMPS,ioos:station:USF.COMPS:FHP:1,2016-01-01T15:42:00Z,28.1530,-82.8010,,7.197,1111122 
COMPS,ioos:station:USF.COMPS:FHP:1,2016-01-01T15:48:00Z,28.1530,-82.8010,,8.784,1111122 
COMPS,ioos:station:USF.COMPS:FHP:1,2016-01-01T15:54:00Z,28.1530,-82.8010,,11.773,1111122 
COMPS,ioos:station:USF.COMPS:FHP:1,2016-01-01T16:00:00Z,28.1530,-82.8010,,13.054,1111122 
COMPS,ioos:station:USF.COMPS:FHP:1,2016-01-01T16:06:00Z,28.1530,-82.8010,,13.933,1111122 
COMPS,ioos:station:USF.COMPS:FHP:1,2016-01-01T16:12:00Z,28.1530,-82.8010,,14.884,1111122 
COMPS,ioos:station:USF.COMPS:FHP:1,2016-01-01T16:18:00Z,28.1530,-82.8010,,14.889,1111122 
COMPS,ioos:station:USF.COMPS:FHP:1,2016-01-01T16:24:00Z,28.1530,-82.8010,,14.859,1111122 
COMPS,ioos:station:USF.COMPS:FHP:1,2016-01-01T16:30:00Z,28.1530,-82.8010,,14.469,1111122 
COMPS,ioos:station:USF.COMPS:FHP:1,2016-01-01T16:36:00Z,28.1530,-82.8010,,14.483,1111122 
COMPS,ioos:station:USF.COMPS:FHP:1,2016-01-01T16:42:00Z,28.1530,-82.8010,,14.468,1111122 
COMPS,ioos:station:USF.COMPS:FHP:1,2016-01-01T16:48:00Z,28.1530,-82.8010,,14.482,1111122 
COMPS,ioos:station:USF.COMPS:FHP:1,2016-01-01T16:54:00Z,28.1530,-82.8010,,14.561,1111122 
COMPS,ioos:station:USF.COMPS:FHP:1,2016-01-01T17:00:00Z,28.1530,-82.8010,,14.536,1111122 
COMPS,ioos:station:USF.COMPS:FHP:1,2016-01-01T17:06:00Z,28.1530,-82.8010,,14.941,1111122 
COMPS,ioos:station:USF.COMPS:FHP:1,2016-01-01T17:12:00Z,28.1530,-82.8010,,15.43,1111122 
COMPS,ioos:station:USF.COMPS:FHP:1,2016-01-01T17:18:00Z,28.1530,-82.8010,,15.338,1111122 
COMPS,ioos:station:USF.COMPS:FHP:1,2016-01-01T17:24:00Z,28.1530,-82.8010,,15.057,1111122 
COMPS,ioos:station:USF.COMPS:FHP:1,2016-01-01T17:30:00Z,28.1530,-82.8010,,14.314,1111122 
COMPS,ioos:station:USF.COMPS:FHP:1,2016-01-01T17:36:00Z,28.1530,-82.8010,,14.438,1111122 
COMPS,ioos:station:USF.COMPS:FHP:1,2016-01-01T17:42:00Z,28.1530,-82.8010,,14.923,1111122 
COMPS,ioos:station:USF.COMPS:FHP:1,2016-01-01T17:48:00Z,28.1530,-82.8010,,14.978,1111122 
COMPS,ioos:station:USF.COMPS:FHP:1,2016-01-01T17:54:00Z,28.1530,-82.8010,,14.897,1111122 
COMPS,ioos:station:USF.COMPS:FHP:1,2016-01-02T04:00:00Z,28.1530,-82.8010,,14.683,1111122 
COMPS,ioos:station:USF.COMPS:FHP:1,2016-01-02T04:06:00Z,28.1530,-82.8010,,14.648,1111122 
COMPS,ioos:station:USF.COMPS:FHP:1,2016-01-02T04:12:00Z,28.1530,-82.8010,,14.648,1111122 
COMPS,ioos:station:USF.COMPS:FHP:1,2016-01-02T04:18:00Z,28.1530,-82.8010,,14.688,1111122 
COMPS,ioos:station:USF.COMPS:FHP:1,2016-01-02T04:24:00Z,28.1530,-82.8010,,14.691,1111122 
COMPS,ioos:station:USF.COMPS:FHP:1,2016-01-02T04:30:00Z,28.1530,-82.8010,,14.668,1111122 
COMPS,ioos:station:USF.COMPS:FHP:1,2016-01-02T04:36:00Z,28.1530,-82.8010,,14.678,1111122 
COMPS,ioos:station:USF.COMPS:FHP:1,2016-01-02T04:42:00Z,28.1530,-82.8010,,14.653,1111122 
COMPS,ioos:station:USF.COMPS:FHP:1,2016-01-02T04:48:00Z,28.1530,-82.8010,,14.614,1111122 
COMPS,ioos:station:USF.COMPS:FHP:1,2016-01-02T04:54:00Z,28.1530,-82.8010,,14.616,1111122 
COMPS,ioos:station:USF.COMPS:FHP:1,2016-01-02T05:00:00Z,28.1530,-82.8010,,14.613,1111122 
COMPS,ioos:station:USF.COMPS:FHP:1,2016-01-02T05:06:00Z,28.1530,-82.8010,,14.59,1111122 
COMPS,ioos:station:USF.COMPS:FHP:1,2016-01-02T05:12:00Z,28.1530,-82.8010,,14.578,1111122 
COMPS,ioos:station:USF.COMPS:FHP:1,2016-01-02T05:18:00Z,28.1530,-82.8010,,14.607,1111122 
COMPS,ioos:station:USF.COMPS:FHP:1,2016-01-02T05:24:00Z,28.1530,-82.8010,,14.586,1111122 
COMPS,ioos:station:USF.COMPS:FHP:1,2016-01-02T05:30:00Z,28.1530,-82.8010,,14.592,1111122 
COMPS,ioos:station:USF.COMPS:FHP:1,2016-01-02T05:36:00Z,28.1530,-82.8010,,14.616,1111122 
COMPS,ioos:station:USF.COMPS:FHP:1,2016-01-02T05:42:00Z,28.1530,-82.8010,,14.616,1111122 
COMPS,ioos:station:USF.COMPS:FHP:1,2016-01-02T05:48:00Z,28.1530,-82.8010,,14.637,1111122 
COMPS,ioos:station:USF.COMPS:FHP:1,2016-01-02T05:54:00Z,28.1530,-82.8010,,14.693,1111122 
COMPS,ioos:station:USF.COMPS:FHP:1,2016-01-02T06:00:00Z,28.1530,-82.8010,,14.693,1111122 
COMPS,ioos:station:USF.COMPS:FHP:1,2016-01-02T06:06:00Z,28.1530,-82.8010,,14.673,1111122 
COMPS,ioos:station:USF.COMPS:FHP:1,2016-01-02T06:12:00Z,28.1530,-82.8010,,14.699,1111122 
COMPS,ioos:station:USF.COMPS:FHP:1,2016-01-02T06:18:00Z,28.1530,-82.8010,,14.699,1111122 
COMPS,ioos:station:USF.COMPS:FHP:1,2016-01-02T06:24:00Z,28.1530,-82.8010,,14.722,1111122 
COMPS,ioos:station:USF.COMPS:FHP:1,2016-01-02T06:30:00Z,28.1530,-82.8010,,14.724,1111122 
COMPS,ioos:station:USF.COMPS:FHP:1,2016-01-02T06:36:00Z,28.1530,-82.8010,,14.722,1111122 
COMPS,ioos:station:USF.COMPS:FHP:1,2016-01-02T06:42:00Z,28.1530,-82.8010,,14.735,1111122 
COMPS,ioos:station:USF.COMPS:FHP:1,2016-01-02T06:48:00Z,28.1530,-82.8010,,14.751,1111122 
COMPS,ioos:station:USF.COMPS:FHP:1,2016-01-02T06:54:00Z,28.1530,-82.8010,,14.744,1111122 
COMPS,ioos:station:USF.COMPS:FHP:1,2016-01-02T07:00:00Z,28.1530,-82.8010,,14.719,1111122 
COMPS,ioos:station:USF.COMPS:FHP:1,2016-01-02T07:06:00Z,28.1530,-82.8010,,14.703,1111122 
COMPS,ioos:station:USF.COMPS:FHP:1,2016-01-02T07:12:00Z,28.1530,-82.8010,,14.704,1111122 
COMPS,ioos:station:USF.COMPS:FHP:1,2016-01-02T07:18:00Z,28.1530,-82.8010,,14.708,1111122 
COMPS,ioos:station:USF.COMPS:FHP:1,2016-01-02T07:24:00Z,28.1530,-82.8010,,14.684,1111122 
COMPS,ioos:station:USF.COMPS:FHP:1,2016-01-02T07:30:00Z,28.1530,-82.8010,,14.631,1111122 
COMPS,ioos:station:USF.COMPS:FHP:1,2016-01-02T07:36:00Z,28.1530,-82.8010,,14.665,1111122 
COMPS,ioos:station:USF.COMPS:FHP:1,2016-01-02T07:42:00Z,28.1530,-82.8010,,14.66,1111122 
COMPS,ioos:station:USF.COMPS:FHP:1,2016-01-02T07:48:00Z,28.1530,-82.8010,,14.663,1111122 
COMPS,ioos:station:USF.COMPS:FHP:1,2016-01-02T07:54:00Z,28.1530,-82.8010,,14.598,1111122 
COMPS,ioos:station:USF.COMPS:FHP:1,2016-01-02T08:00:00Z,28.1530,-82.8010,,14.557,1111122 
COMPS,ioos:station:USF.COMPS:FHP:1,2016-01-02T08:06:00Z,28.1530,-82.8010,,14.561,1111122 
COMPS,ioos:station:USF.COMPS:FHP:1,2016-01-02T08:12:00Z,28.1530,-82.8010,,14.58,1111122 
COMPS,ioos:station:USF.COMPS:FHP:1,2016-01-02T08:18:00Z,28.1530,-82.8010,,14.608,1111122 
COMPS,ioos:station:USF.COMPS:FHP:1,2016-01-02T08:24:00Z,28.1530,-82.8010,,14.615,1111122 
COMPS,ioos:station:USF.COMPS:FHP:1,2016-01-02T08:30:00Z,28.1530,-82.8010,,14.601,1111122 
COMPS,ioos:station:USF.COMPS:FHP:1,2016-01-02T08:36:00Z,28.1530,-82.8010,,14.57,1111122 
COMPS,ioos:station:USF.COMPS:FHP:1,2016-01-02T08:42:00Z,28.1530,-82.8010,,14.589,1111122 
COMPS,ioos:station:USF.COMPS:FHP:1,2016-01-02T08:48:00Z,28.1530,-82.8010,,14.621,1111122 
COMPS,ioos:station:USF.COMPS:FHP:1,2016-01-02T08:54:00Z,28.1530,-82.8010,,14.605,1111122 
COMPS,ioos:station:USF.COMPS:FHP:1,2016-01-02T09:00:00Z,28.1530,-82.8010,,14.657,1111122 
COMPS,ioos:station:USF.COMPS:FHP:1,2016-01-02T09:06:00Z,28.1530,-82.8010,,14.648,1111122 
COMPS,ioos:station:USF.COMPS:FHP:1,2016-01-02T09:12:00Z,28.1530,-82.8010,,14.633,1111122 
COMPS,ioos:station:USF.COMPS:FHP:1,2016-01-02T09:18:00Z,28.1530,-82.8010,,14.67,1111122 
COMPS,ioos:station:USF.COMPS:FHP:1,2016-01-02T09:24:00Z,28.1530,-82.8010,,14.63,1111122 
COMPS,ioos:station:USF.COMPS:FHP:1,2016-01-02T09:30:00Z,28.1530,-82.8010,,14.57,1111122 
COMPS,ioos:station:USF.COMPS:FHP:1,2016-01-02T09:36:00Z,28.1530,-82.8010,,14.55,1111122 
COMPS,ioos:station:USF.COMPS:FHP:1,2016-01-02T09:42:00Z,28.1530,-82.8010,,14.633,1111122 
COMPS,ioos:station:USF.COMPS:FHP:1,2016-01-02T09:48:00Z,28.1530,-82.8010,,14.6,1111122 
COMPS,ioos:station:USF.COMPS:FHP:1,2016-01-02T09:54:00Z,28.1530,-82.8010,,14.63,1111122 
COMPS,ioos:station:USF.COMPS:FHP:1,2016-01-02T10:00:00Z,28.1530,-82.8010,,14.609,1111122 
COMPS,ioos:station:USF.COMPS:FHP:1,2016-01-02T10:06:00Z,28.1530,-82.8010,,14.61,1111122 
COMPS,ioos:station:USF.COMPS:FHP:1,2016-01-02T10:12:00Z,28.1530,-82.8010,,14.61,1111122 
COMPS,ioos:station:USF.COMPS:FHP:1,2016-01-02T10:18:00Z,28.1530,-82.8010,,14.614,1111122 
COMPS,ioos:station:USF.COMPS:FHP:1,2016-01-02T10:24:00Z,28.1530,-82.8010,,14.633,1111122 
COMPS,ioos:station:USF.COMPS:FHP:1,2016-01-02T10:30:00Z,28.1530,-82.8010,,14.61,1111122 
COMPS,ioos:station:USF.COMPS:FHP:1,2016-01-02T10:36:00Z,28.1530,-82.8010,,14.631,1111122 
COMPS,ioos:station:USF.COMPS:FHP:1,2016-01-02T10:42:00Z,28.1530,-82.8010,,14.617,1111122 
COMPS,ioos:station:USF.COMPS:FHP:1,2016-01-02T10:48:00Z,28.1530,-82.8010,,14.625,1111122 
COMPS,ioos:station:USF.COMPS:FHP:1,2016-01-02T10:54:00Z,28.1530,-82.8010,,14.646,1111122 
COMPS,ioos:station:USF.COMPS:FHP:1,2016-01-02T11:00:00Z,28.1530,-82.8010,,14.659,1111122 
COMPS,ioos:station:USF.COMPS:FHP:1,2016-01-02T11:06:00Z,28.1530,-82.8010,,14.676,1111122 
COMPS,ioos:station:USF.COMPS:FHP:1,2016-01-02T11:12:00Z,28.1530,-82.8010,,14.714,1111122 
COMPS,ioos:station:USF.COMPS:FHP:1,2016-01-02T11:18:00Z,28.1530,-82.8010,,14.692,1111122 
COMPS,ioos:station:USF.COMPS:FHP:1,2016-01-02T11:24:00Z,28.1530,-82.8010,,14.678,1111122 
COMPS,ioos:station:USF.COMPS:FHP:1,2016-01-02T11:30:00Z,28.1530,-82.8010,,14.666,1111122 
COMPS,ioos:station:USF.COMPS:FHP:1,2016-01-02T11:36:00Z,28.1530,-82.8010,,14.634,1111122 
COMPS,ioos:station:USF.COMPS:FHP:1,2016-01-02T11:42:00Z,28.1530,-82.8010,,14.633,1111122 
COMPS,ioos:station:USF.COMPS:FHP:1,2016-01-02T11:48:00Z,28.1530,-82.8010,,14.623,1111122 
COMPS,ioos:station:USF.COMPS:FHP:1,2016-01-02T11:54:00Z,28.1530,-82.8010,,14.633,1111122 
COMPS,ioos:station:USF.COMPS:FHP:1,2016-01-02T12:00:00Z,28.1530,-82.8010,,14.63,1111122 
COMPS,ioos:station:USF.COMPS:FHP:1,2016-01-02T12:06:00Z,28.1530,-82.8010,,14.583,1111122 
COMPS,ioos:station:USF.COMPS:FHP:1,2016-01-02T12:12:00Z,28.1530,-82.8010,,14.597,1111122 
COMPS,ioos:station:USF.COMPS:FHP:1,2016-01-02T12:18:00Z,28.1530,-82.8010,,14.571,1111122 
COMPS,ioos:station:USF.COMPS:FHP:1,2016-01-02T12:24:00Z,28.1530,-82.8010,,14.594,1111122 
COMPS,ioos:station:USF.COMPS:FHP:1,2016-01-02T12:30:00Z,28.1530,-82.8010,,14.61,1111122 
COMPS,ioos:station:USF.COMPS:FHP:1,2016-01-02T12:36:00Z,28.1530,-82.8010,,14.577,1111122 
COMPS,ioos:station:USF.COMPS:FHP:1,2016-01-02T12:42:00Z,28.1530,-82.8010,,14.551,1111122 
COMPS,ioos:station:USF.COMPS:FHP:1,2016-01-02T12:48:00Z,28.1530,-82.8010,,14.559,1111122 
COMPS,ioos:station:USF.COMPS:FHP:1,2016-01-02T12:54:00Z,28.1530,-82.8010,,14.499,1111122 
COMPS,ioos:station:USF.COMPS:FHP:1,2016-01-02T13:00:00Z,28.1530,-82.8010,,14.521,1111122 
COMPS,ioos:station:USF.COMPS:FHP:1,2016-01-02T13:06:00Z,28.1530,-82.8010,,14.58,1111122 
COMPS,ioos:station:USF.COMPS:FHP:1,2016-01-02T13:12:00Z,28.1530,-82.8010,,14.58,1111122 
COMPS,ioos:station:USF.COMPS:FHP:1,2016-01-02T13:18:00Z,28.1530,-82.8010,,14.582,1111122 
COMPS,ioos:station:USF.COMPS:FHP:1,2016-01-02T13:24:00Z,28.1530,-82.8010,,14.622,1111122 
COMPS,ioos:station:USF.COMPS:FHP:1,2016-01-02T13:30:00Z,28.1530,-82.8010,,14.588,1111122 
COMPS,ioos:station:USF.COMPS:FHP:1,2016-01-02T13:36:00Z,28.1530,-82.8010,,15.108,1111122 
COMPS,ioos:station:USF.COMPS:FHP:1,2016-01-02T13:42:00Z,28.1530,-82.8010,,15.33,1111122 
COMPS,ioos:station:USF.COMPS:FHP:1,2016-01-02T13:48:00Z,28.1530,-82.8010,,15.246,1111122 
COMPS,ioos:station:USF.COMPS:FHP:1,2016-01-02T13:54:00Z,28.1530,-82.8010,,15.287,1111122 
COMPS,ioos:station:USF.COMPS:FHP:1,2016-01-02T14:00:00Z,28.1530,-82.8010,,15.281,1111122 
COMPS,ioos:station:USF.COMPS:FHP:1,2016-01-02T14:06:00Z,28.1530,-82.8010,,15.172,1111122 
COMPS,ioos:station:USF.COMPS:FHP:1,2016-01-02T14:12:00Z,28.1530,-82.8010,,14.506,1111122 
COMPS,ioos:station:USF.COMPS:FHP:1,2016-01-02T14:18:00Z,28.1530,-82.8010,,14.653,1111122 
COMPS,ioos:station:USF.COMPS:FHP:1,2016-01-02T14:24:00Z,28.1530,-82.8010,,14.734,1111122 
COMPS,ioos:station:USF.COMPS:FHP:1,2016-01-02T14:30:00Z,28.1530,-82.8010,,14.61,1111122 
COMPS,ioos:station:USF.COMPS:FHP:1,2016-01-02T14:36:00Z,28.1530,-82.8010,,14.132,1111122 
COMPS,ioos:station:USF.COMPS:FHP:1,2016-01-02T14:42:00Z,28.1530,-82.8010,,13.623,1111122 
COMPS,ioos:station:USF.COMPS:FHP:1,2016-01-02T14:48:00Z,28.1530,-82.8010,,10.066,1111122 
COMPS,ioos:station:USF.COMPS:FHP:1,2016-01-02T15:00:00Z,28.1530,-82.8010,,3.157,1111122 
COMPS,ioos:station:USF.COMPS:FHP:1,2016-01-02T15:42:00Z,28.1530,-82.8010,,4.481,1111122 
COMPS,ioos:station:USF.COMPS:FHP:1,2016-01-02T15:48:00Z,28.1530,-82.8010,,5.059,1111122 
COMPS,ioos:station:USF.COMPS:FHP:1,2016-01-02T15:54:00Z,28.1530,-82.8010,,5.349,1111122 
COMPS,ioos:station:USF.COMPS:FHP:1,2016-01-02T16:00:00Z,28.1530,-82.8010,,5.197,1111122 
COMPS,ioos:station:USF.COMPS:FHP:1,2016-01-02T16:06:00Z,28.1530,-82.8010,,4.433,1111122 
COMPS,ioos:station:USF.COMPS:FHP:1,2016-01-02T16:12:00Z,28.1530,-82.8010,,3.614,1111122 
COMPS,ioos:station:USF.COMPS:FHP:1,2016-01-02T18:06:00Z,28.1530,-82.8010,,3.497,1111122 
COMPS,ioos:station:USF.COMPS:FHP:1,2016-01-02T18:12:00Z,28.1530,-82.8010,,14.793,1111122 
COMPS,ioos:station:USF.COMPS:FHP:1,2016-01-02T18:18:00Z,28.1530,-82.8010,,15.218,1111122 
COMPS,ioos:station:USF.COMPS:FHP:1,2016-01-02T18:24:00Z,28.1530,-82.8010,,15.253,1111122 
COMPS,ioos:station:USF.COMPS:FHP:1,2016-01-02T18:30:00Z,28.1530,-82.8010,,15.356,1111122 
COMPS,ioos:station:USF.COMPS:FHP:1,2016-01-02T18:36:00Z,28.1530,-82.8010,,15.258,1111122 
COMPS,ioos:station:USF.COMPS:FHP:1,2016-01-02T18:42:00Z,28.1530,-82.8010,,15.465,1111122 
COMPS,ioos:station:USF.COMPS:FHP:1,2016-01-02T18:48:00Z,28.1530,-82.8010,,15.269,1111122 
COMPS,ioos:station:USF.COMPS:FHP:1,2016-01-02T18:54:00Z,28.1530,-82.8010,,15.351,1111122 
COMPS,ioos:station:USF.COMPS:FHP:1,2016-01-02T19:00:00Z,28.1530,-82.8010,,15.216,1111122 
COMPS,ioos:station:USF.COMPS:FHP:1,2016-01-02T19:06:00Z,28.1530,-82.8010,,15.269,1111122 
COMPS,ioos:station:USF.COMPS:FHP:1,2016-01-02T19:12:00Z,28.1530,-82.8010,,15.332,1111122 
COMPS,ioos:station:USF.COMPS:FHP:1,2016-01-02T19:18:00Z,28.1530,-82.8010,,15.456,1111122 
COMPS,ioos:station:USF.COMPS:FHP:1,2016-01-02T19:24:00Z,28.1530,-82.8010,,15.464,1111122 
COMPS,ioos:station:USF.COMPS:FHP:1,2016-01-02T19:30:00Z,28.1530,-82.8010,,15.356,1111122 
COMPS,ioos:station:USF.COMPS:FHP:1,2016-01-02T19:36:00Z,28.1530,-82.8010,,15.332,1111122 